TimeCST,TemperatureF,Dew PointF,Humidity,Sea Level PressureIn,VisibilityMPH,Wind Direction,Wind SpeedMPH,Gust SpeedMPH,PrecipitationIn,Events,Conditions,WindDirDegrees,DateUTC
12:15 AM,53.8,53.6,99,29.51,7.0,NNW,8.1,-,0.06,Rain,Heavy Rain,340,2013-01-30 06:15:00
12:35 AM,53.6,53.6,100,29.51,5.0,NNW,5.8,-,0.16,Rain,Heavy Rain,340,2013-01-30 06:35:00
12:55 AM,53.4,53.4,100,29.53,5.0,WNW,3.5,-,0.30,Rain-Thunderstorm,Heavy Thunderstorms and Rain,290,2013-01-30 06:55:00
1:15 AM,53.2,53.2,100,29.55,7.0,WNW,3.5,-,0.09,Rain,Heavy Rain,300,2013-01-30 07:15:00
1:35 AM,53.1,53.1,100,29.54,7.0,Calm,Calm,-,0.15,Rain,Rain,0,2013-01-30 07:35:00
1:55 AM,52.9,52.9,100,29.54,10.0,Calm,Calm,-,0.19,Rain,Light Rain,0,2013-01-30 07:55:00
2:15 AM,52.9,52.9,100,29.52,10.0,Calm,Calm,-,0.01,Rain,Rain,0,2013-01-30 08:15:00
2:35 AM,52.7,52.7,100,29.55,10.0,SW,3.5,-,0.04,Rain,Rain,220,2013-01-30 08:35:00
2:55 AM,52.5,52.5,100,29.53,7.0,ESE,3.5,-,0.08,Rain,Rain,120,2013-01-30 08:55:00
3:15 AM,52.3,52.3,100,29.51,7.0,ESE,3.5,-,0.04,Rain,Rain,120,2013-01-30 09:15:00
3:35 AM,52.2,52.2,100,29.48,7.0,ESE,3.5,-,0.07,Rain,Rain,110,2013-01-30 09:35:00
3:55 AM,52.2,52.2,100,29.51,10.0,SSE,5.8,-,0.09,Rain,Rain,150,2013-01-30 09:55:00
4:15 AM,52.0,52.0,100,29.46,10.0,ESE,9.2,-,0.02,Rain,Light Rain,120,2013-01-30 10:15:00
4:35 AM,52.2,52.2,100,29.45,10.0,SE,9.2,-,0.03,Rain,Light Rain,130,2013-01-30 10:35:00
4:55 AM,52.2,52.2,100,29.46,10.0,SE,5.8,-,0.03,,Overcast,140,2013-01-30 10:55:00
5:15 AM,52.2,52.2,100,29.49,10.0,South,6.9,-,N/A,,Overcast,180,2013-01-30 11:15:00
5:35 AM,52.3,52.3,100,29.47,10.0,Calm,Calm,-,N/A,,Overcast,0,2013-01-30 11:35:00
5:55 AM,52.3,52.3,100,29.47,10.0,Calm,Calm,-,N/A,,Overcast,0,2013-01-30 11:55:00
6:15 AM,52.7,52.7,100,29.47,10.0,South,4.6,-,N/A,,Overcast,170,2013-01-30 12:15:00
6:35 AM,52.3,52.3,100,29.49,10.0,South,4.6,-,N/A,,Overcast,190,2013-01-30 12:35:00
6:55 AM,52.3,52.3,100,29.47,10.0,South,3.5,-,N/A,,Overcast,180,2013-01-30 12:55:00
7:15 AM,52.5,52.5,100,29.48,10.0,South,4.6,-,N/A,,Overcast,190,2013-01-30 13:15:00
7:35 AM,52.7,52.7,100,29.50,10.0,South,9.2,-,N/A,,Overcast,180,2013-01-30 13:35:00
7:55 AM,53.1,53.1,100,29.49,10.0,South,10.4,17.3,N/A,,Overcast,190,2013-01-30 13:55:00
8:15 AM,53.6,53.6,100,29.47,10.0,SSW,10.4,16.1,N/A,,Overcast,200,2013-01-30 14:15:00
8:35 AM,54.0,53.8,99,29.48,10.0,SSW,11.5,18.4,N/A,,Overcast,200,2013-01-30 14:35:00
8:55 AM,54.5,54.0,98,29.48,10.0,SSW,11.5,-,N/A,,Overcast,200,2013-01-30 14:55:00
9:15 AM,55.0,53.6,95,29.47,10.0,SSW,12.7,19.6,N/A,,Overcast,200,2013-01-30 15:15:00
9:35 AM,56.1,53.4,91,29.46,10.0,SSW,11.5,24.2,N/A,,Overcast,210,2013-01-30 15:35:00
9:55 AM,56.3,53.4,90,29.45,10.0,SSW,11.5,18.4,N/A,,Overcast,200,2013-01-30 15:55:00
10:15 AM,56.7,53.1,88,29.46,10.0,SSW,13.8,19.6,N/A,,Mostly Cloudy,210,2013-01-30 16:15:00
10:35 AM,57.4,52.3,83,29.45,10.0,SW,18.4,26.5,N/A,,Mostly Cloudy,220,2013-01-30 16:35:00
10:55 AM,56.5,49.3,77,29.44,10.0,SSW,17.3,21.9,N/A,,Overcast,210,2013-01-30 16:55:00
11:15 AM,56.8,49.1,75,29.44,10.0,SSW,15.0,23.0,N/A,,Overcast,210,2013-01-30 17:15:00
11:35 AM,57.0,48.9,74,29.43,10.0,SSW,11.5,23.0,N/A,,Overcast,210,2013-01-30 17:35:00
11:55 AM,55.8,47.7,74,29.44,10.0,SSW,18.4,25.3,N/A,,Overcast,210,2013-01-30 17:55:00
12:15 PM,53.6,48.2,82,29.43,5.0,SW,16.1,28.8,0.02,Rain,Rain,230,2013-01-30 18:15:00
12:35 PM,50.0,45.1,83,29.44,7.0,West,17.3,29.9,0.07,,Overcast,270,2013-01-30 18:35:00
12:55 PM,48.7,45.3,88,29.47,10.0,West,13.8,23.0,0.07,,Overcast,280,2013-01-30 18:55:00
1:15 PM,47.1,42.3,83,29.48,10.0,West,15.0,23.0,N/A,,Overcast,280,2013-01-30 19:15:00
1:35 PM,46.4,41.9,84,29.48,10.0,West,10.4,19.6,N/A,,Overcast,270,2013-01-30 19:35:00
1:55 PM,46.0,38.5,75,29.50,10.0,West,13.8,20.7,N/A,,Overcast,260,2013-01-30 19:55:00
2:15 PM,47.8,38.7,70,29.50,10.0,West,15.0,20.7,N/A,,Overcast,260,2013-01-30 20:15:00
2:35 PM,46.8,36.3,67,29.52,10.0,WSW,11.5,16.1,N/A,,Overcast,250,2013-01-30 20:35:00
2:55 PM,46.9,34.9,63,29.53,10.0,West,11.5,20.7,N/A,,Overcast,260,2013-01-30 20:55:00
3:15 PM,45.5,34.3,65,29.55,10.0,WNW,18.4,27.6,N/A,,Overcast,290,2013-01-30 21:15:00
3:35 PM,41.9,32.5,69,29.58,10.0,West,18.4,27.6,N/A,,Overcast,280,2013-01-30 21:35:00
3:55 PM,41.0,33.3,74,29.60,10.0,WNW,18.4,28.8,N/A,,Overcast,290,2013-01-30 21:55:00
4:15 PM,39.9,29.7,67,29.62,10.0,WNW,17.3,32.2,N/A,,Overcast,290,2013-01-30 22:15:00
4:35 PM,38.7,27.9,65,29.64,10.0,WNW,23.0,31.1,N/A,,Overcast,290,2013-01-30 22:35:00
4:55 PM,37.9,28.0,68,29.66,10.0,WNW,16.1,28.8,N/A,,Overcast,290,2013-01-30 22:55:00
5:15 PM,37.4,27.5,67,29.67,10.0,WNW,19.6,28.8,N/A,,Overcast,290,2013-01-30 23:15:00
5:35 PM,36.5,26.8,68,29.69,10.0,WNW,19.6,27.6,N/A,,Overcast,290,2013-01-30 23:35:00
5:55 PM,35.8,25.3,66,29.71,10.0,WNW,21.9,27.6,N/A,,Overcast,290,2013-01-30 23:55:00
6:15 PM,35.6,24.8,65,29.73,10.0,WNW,15.0,25.3,N/A,,Overcast,290,2013-01-31 00:15:00
6:35 PM,35.6,25.7,67,29.75,10.0,West,18.4,25.3,N/A,,Overcast,280,2013-01-31 00:35:00
6:55 PM,35.2,25.0,66,29.76,10.0,WNW,15.0,21.9,N/A,,Overcast,290,2013-01-31 00:55:00
7:15 PM,34.9,25.5,69,29.78,10.0,West,24.2,29.9,N/A,,Overcast,280,2013-01-31 01:15:00
7:35 PM,34.7,25.0,68,29.80,10.0,WNW,15.0,26.5,N/A,,Overcast,300,2013-01-31 01:35:00
7:55 PM,34.7,25.0,68,29.81,10.0,West,15.0,28.8,N/A,,Overcast,280,2013-01-31 01:55:00
8:15 PM,34.2,24.6,68,29.83,10.0,WNW,20.7,26.5,N/A,,Overcast,290,2013-01-31 02:15:00
8:35 PM,34.0,24.4,68,29.84,10.0,West,15.0,21.9,N/A,,Overcast,280,2013-01-31 02:35:00
8:55 PM,34.0,25.2,70,29.84,10.0,WNW,16.1,21.9,N/A,,Overcast,290,2013-01-31 02:55:00
9:15 PM,34.0,24.6,69,29.86,10.0,West,13.8,27.6,N/A,,Overcast,280,2013-01-31 03:15:00
9:35 PM,33.6,24.6,70,29.87,10.0,WNW,13.8,18.4,N/A,,Overcast,290,2013-01-31 03:35:00
9:55 PM,33.4,24.6,70,29.88,10.0,West,13.8,21.9,N/A,,Overcast,270,2013-01-31 03:55:00
10:15 PM,33.8,23.5,66,29.89,10.0,West,15.0,24.2,N/A,,Overcast,270,2013-01-31 04:15:00
10:35 PM,33.4,23.9,68,29.90,10.0,West,16.1,24.2,N/A,,Overcast,280,2013-01-31 04:35:00
10:55 PM,33.3,23.5,68,29.91,10.0,West,12.7,23.0,N/A,,Overcast,280,2013-01-31 04:55:00
11:15 PM,33.1,23.0,66,29.92,10.0,WNW,15.0,21.9,N/A,,Overcast,290,2013-01-31 05:15:00
11:35 PM,33.3,21.0,61,29.93,10.0,WNW,15.0,29.9,N/A,,Overcast,290,2013-01-31 05:35:00
11:55 PM,32.9,21.0,62,29.93,10.0,WNW,13.8,20.7,N/A,,Overcast,290,2013-01-31 05:55:00